ANIK F2

Last updated on Tue Sep 22 2026 00:03:10 GMT+0000 (Coordinated Universal Time)

1 28378U 04027A 26264.50657191 -.00000052 00000+0 00000+0 0 9991 2 28378 3.5288 78.1667 0003061 86.9680 266.5330 1.00272741 42227
UTC large
Height (km)
Speed (km/s)
/
Latitude / Longitude
Inclination (degrees)
Orbital Period (minutes)
Azimuth
Elevation
Range (km)
Doppler Factor

Next 0 passes for location: London (51.5072 / 0.1276)

No passes found over London.
ANIK F2